Wind_Speed
128 127 122 107 115 111 97 92 93 87 84 94 91 87 78 79 73 64 67 65 59 55 54 51 45 52 54 49 45 45 45 44 41 39 37 34 31 30 32 31 31 30 30 29
132 133 126 123 117 116 116 111 96 91 93 100 100 100 87 81 77 73 71 67 63 63 60 54 51 47 49 57 51 52 51 48 46 44 42 39 37 38 37 37 36 33 34 36
131 133 134 132 131 126 119 112 109 97 93 101 106 102 98 87 79 82 75 68 69 68 66 64 58 52 50 50 57 56 59 56 52 48 45 45 44 44 45 43 41 39 38 40
120 123 132 134 135 135 129 119 120 112 110 99 103 105 102 90 82 79 80 81 75 72 72 68 65 62 55 53 50 59 61 61 59 53 51 50 51 50 52 49 47 45 46 44
96 112 121 128 131 134 133 133 128 121 121 115 110 113 92 93 86 83 85 86 80 83 79 77 72 69 64 61 58 58 57 63 61 59 58 57 55 57 57 55 52 52 51 50
87 95 108 115 121 131 132 140 140 134 132 130 115 117 100 91 85 90 92 88 83 91 87 82 79 75 66 64 62 63 63 57 56 62 65 62 61 63 63 59 57 58 57 56
78 85 94 103 115 122 133 141 139 143 147 133 119 122 109 91 91 87 95 99 94 93 93 83 83 77 74 73 68 64 67 64 62 58 60 63 64 66 66 65 62 61 60 61
70 79 83 91 103 116 126 134 137 141 141 134 130 133 120 104 97 94 98 102 99 95 94 87 88 84 78 76 78 82 74 67 69 69 66 57 60 61 64 67 66 65 64 64
56 67 78 83 88 103 116 129 129 137 140 141 137 136 131 124 112 102 101 104 101 98 96 94 95 94 92 84 82 88 83 75 71 76 80 64 55 59 60 55 57 55 56 58
46 57 69 80 87 92 103 117 126 132 136 139 135 134 132 131 123 120 109 107 106 106 103 99 104 104 102 99 90 87 85 81 79 78 79 74 68 63 66 60 56 58 57 55
36 48 59 67 80 86 95 100 114 126 132 135 131 132 131 136 133 131 125 113 114 111 114 109 109 110 109 100 91 96 91 88 89 86 81 79 77 70 70 71 69 65 62 58
32 39 50 57 69 75 87 93 108 119 123 131 128 127 130 131 136 135 134 130 122 121 119 115 115 114 109 101 97 101 100 88 87 89 88 82 81 79 76 74 71 71 71 68
25 32 41 48 60 70 79 91 100 113 118 124 129 126 127 127 129 133 142 143 139 131 125 121 121 117 110 106 103 104 99 87 86 90 94 88 84 84 82 80 78 76 78 75
28 25 30 41 50 63 71 84 92 102 109 117 127 128 129 131 134 134 137 143 142 144 133 119 115 117 117 115 104 106 104 97 96 95 96 95 93 91 93 89 84 83 81 81
34 27 25 31 44 54 61 69 83 91 96 107 114 121 125 130 130 131 134 133 134 140 140 136 130 118 115 118 116 119 114 106 102 99 99 100 98 92 89 94 97 95 93 89
34 32 28 31 33 45 50 60 72 85 93 101 105 112 118 124 126 127 131 133 130 133 142 144 145 142 133 127 119 115 118 114 109 103 102 105 104 101 99 96 93 96 98 94
40 32 30 34 27 33 47 62 67 76 87 96 101 104 111 118 123 129 132 137 136 138 138 139 147 149 147 142 131 115 112 115 117 112 113 113 110 106 105 101 98 95 94 94
47 38 34 31 29 35 43 53 60 65 73 85 93 100 108 113 113 121 130 140 142 139 142 142 142 146 148 148 145 142 131 117 117 122 125 121 118 115 111 108 101 101 100 103
47 41 39 33 27 31 45 46 53 58 58 74 85 89 97 100 105 111 122 127 134 136 139 133 137 140 139 143 144 148 149 140 129 123 121 120 118 119 121 117 115 108 104 106
47 40 38 35 29 33 39 44 48 50 54 65 70 78 85 90 96 103 112 118 123 130 138 136 137 135 134 133 137 142 145 148 146 143 139 129 123 119 119 120 121 122 122 122
55 51 48 44 35 31 36 42 48 48 52 56 62 68 75 79 87 91 102 112 116 121 126 130 136 139 139 139 144 146 143 143 145 149 148 147 145 142 133 126 121 116 115 113
59 54 55 51 49 43 37 35 41 50 51 52 58 64 68 72 78 83 88 96 106 110 114 121 129 133 135 137 139 141 141 140 145 145 144 146 146 146 146 145 143 141 135 132
62 60 57 56 52 49 50 39 37 39 48 55 54 59 60 65 71 77 79 89 96 101 107 107 112 120 127 130 135 141 136 137 143 142 140 141 142 142 144 145 144 142 141 137
62 63 60 57 56 52 55 49 41 38 38 45 54 59 60 60 62 67 74 78 80 89 95 100 101 104 109 115 125 132 134 136 140 139 137 137 136 137 140 142 140 139 140 139
63 64 61 61 56 55 55 51 46 43 41 43 49 50 53 54 58 60 63 70 74 76 82 89 92 95 98 103 103 109 120 126 129 135 136 135 135 133 132 135 135 137 135 135
67 63 62 60 58 56 53 48 45 44 43 45 45 47 47 45 50 55 56 59 63 68 71 76 77 79 87 95 96 98 103 110 117 123 127 129 130 131 129 130 130 132 132 133
Wind_Direction
238 236 235 238 237 237 233 241 245 241 239 244 242 242 237 243 248 244 251 252 253 251 252 253 243 240 237 238 244 244 245 244 241 245 249 254 255 252 256 260 266 273 277 281
242 239 238 239 237 237 237 238 239 241 241 242 243 243 237 239 238 243 249 247 253 252 255 255 257 247 245 240 236 245 245 244 243 245 246 250 254 256 254 256 259 264 269 272
244 243 240 241 238 236 235 237 234 236 239 240 244 245 242 241 237 244 242 248 248 252 252 255 255 258 249 249 239 240 246 245 244 244 247 250 253 256 259 259 260 262 263 268
246 243 242 241 240 240 237 237 234 232 232 239 245 244 247 243 238 239 243 247 251 244 251 255 253 253 256 253 250 239 242 248 249 247 248 249 251 253 256 258 261 262 265 266
247 244 242 239 240 240 238 238 235 232 233 233 238 248 244 244 242 240 243 245 245 248 248 250 251 251 253 257 257 255 245 244 250 251 249 250 250 253 255 258 260 263 266 268
247 242 240 239 239 238 237 237 235 234 235 234 232 243 244 240 244 244 247 246 243 245 246 247 247 249 250 254 257 261 261 255 249 254 253 251 251 253 256 257 259 263 266 269
248 245 240 235 233 233 236 237 236 237 235 236 233 235 239 239 239 238 242 242 241 242 246 246 245 245 248 254 253 254 259 260 260 255 255 259 255 255 259 261 260 263 266 269
248 244 240 236 233 231 231 234 237 238 238 238 236 236 235 235 239 237 239 243 246 246 246 249 246 248 252 250 252 251 248 255 263 264 261 255 260 263 258 261 263 264 265 267
249 245 243 238 236 230 231 233 234 234 238 236 234 235 234 233 233 237 238 242 241 241 243 244 246 247 247 247 247 250 251 252 256 262 262 257 252 257 264 263 265 267 270 270
251 243 240 236 238 230 231 231 233 235 236 236 235 236 234 233 231 234 236 238 240 238 242 241 240 243 248 250 251 250 251 254 254 253 260 263 254 250 258 262 265 269 270 269
259 247 241 239 236 233 234 233 236 235 235 236 236 235 235 235 234 232 236 238 240 239 238 241 239 242 246 253 255 255 250 252 251 250 250 256 260 260 260 261 261 261 267 269
276 255 246 237 237 231 234 234 230 236 235 236 236 236 235 235 235 234 234 236 237 237 238 240 241 245 249 251 252 252 251 250 249 249 248 250 254 259 260 261 260 262 262 264
296 267 259 244 238 234 231 232 231 234 230 234 236 235 233 236 238 236 234 234 234 235 237 236 240 245 247 248 248 251 253 251 251 251 247 247 251 256 258 260 261 262 265 266
317 293 275 258 246 240 234 233 234 234 234 233 235 234 233 233 234 237 236 236 234 236 238 241 241 244 249 249 248 250 253 252 250 249 247 246 248 253 255 255 256 258 262 265
327 318 292 267 255 247 242 238 238 239 238 237 236 237 236 236 236 237 239 238 237 237 239 240 240 242 242 244 245 246 245 249 249 249 247 248 248 252 253 254 255 257 261 264
334 324 309 281 265 260 250 241 236 237 239 239 237 237 237 235 239 239 240 241 240 238 237 236 239 239 237 240 240 241 244 245 246 248 249 250 253 254 254 256 259 258 256 260
330 329 313 299 279 265 256 246 238 235 236 237 237 239 239 237 234 236 235 239 239 240 239 238 237 237 240 242 242 243 244 245 247 248 249 247 248 250 251 253 253 255 255 256
328 331 317 314 302 276 265 256 251 242 240 242 242 238 236 237 237 237 238 237 237 237 238 237 237 236 236 240 244 245 241 242 244 247 249 249 249 248 250 252 253 251 255 257
329 328 321 316 306 288 272 265 260 256 251 242 243 244 244 240 237 239 240 242 242 243 242 242 243 240 238 239 240 244 246 244 242 244 246 248 250 251 250 250 253 253 254 255
325 324 314 310 301 286 278 275 265 257 254 252 245 243 245 244 243 239 241 242 243 241 243 243 244 244 243 243 244 243 244 244 246 245 244 244 246 248 250 252 252 254 254 257
326 326 317 313 298 281 288 282 274 267 256 251 252 251 247 246 245 240 241 242 242 241 242 243 243 243 242 240 241 244 243 243 244 246 248 249 249 248 247 248 249 251 254 256
325 325 318 319 315 309 289 280 275 275 270 260 255 253 250 248 249 244 241 243 246 246 244 243 243 243 244 244 243 244 245 245 244 245 246 248 250 251 252 253 254 254 253 255
326 321 321 320 317 314 301 291 278 267 269 272 264 259 254 253 251 248 245 244 242 244 246 247 245 245 244 243 244 245 245 245 246 246 247 248 249 251 252 252 253 255 256 256
325 319 319 319 315 315 308 300 293 284 274 269 265 264 262 260 256 253 253 250 247 248 247 246 246 247 247 245 243 245 245 245 246 248 248 249 248 248 250 252 254 254 255 257
322 319 319 317 315 315 309 304 299 293 283 272 271 268 265 262 263 260 257 255 253 251 250 251 249 247 247 248 247 246 246 246 246 247 248 249 251 251 250 251 252 254 255 256
317 317 317 316 315 314 311 306 299 294 290 286 279 274 272 268 262 261 260 259 258 256 253 254 253 251 249 249 248 246 246 245 244 245 246 247 248 250 251 252 252 253 254 254
Height
10656 10656 10676 10698 10699 10717 10723 10724 10739 10758 10762 10753 10762 10769 10788 10790 10794 10805 10807 10811 10815 10820 10824 10827 10834 10840 10842 10850 10854 10854 10857 10860 10865 10866 10869 10873 10876 10875 10875 10877 10877 10879 10879 10878
10627 10635 10664 10665 10674 10682 10700 10709 10726 10731 10739 10732 10733 10740 10765 10773 10784 10790 10794 10799 10805 10808 10811 10817 10821 10828 10834 10835 10845 10845 10846 10850 10854 10857 10861 10865 10868 10868 10868 10869 10871 10873 10874 10872
10591 10610 10627 10633 10643 10654 10674 10689 10708 10713 10709 10708 10709 10721 10740 10758 10774 10773 10783 10789 10794 10798 10800 10805 10809 10815 10820 10824 10831 10835 10834 10839 10843 10847 10852 10855 10858 10859 10859 10861 10863 10866 10867 10866
10555 10579 10589 10601 10617 10628 10646 10669 10671 10683 10680 10689 10690 10699 10718 10746 10760 10767 10771 10773 10782 10787 10788 10790 10797 10802 10806 10811 10814 10822 10823 10827 10832 10838 10842 10845 10847 10849 10847 10852 10855 10857 10857 10858
10538 10537 10548 10564 10590 10593 10621 10626 10635 10656 10651 10670 10666 10667 10716 10719 10741 10753 10754 10758 10765 10772 10776 10773 10781 10786 10793 10796 10802 10803 10813 10818 10820 10826 10831 10832 10837 10836 10836 10842 10845 10846 10847 10848
10498 10500 10504 10531 10555 10564 10581 10580 10604 10616 10623 10623 10671 10657 10693 10707 10728 10734 10736 10743 10749 10748 10757 10761 10765 10771 10775 10782 10790 10790 10795 10803 10812 10809 10813 10821 10824 10824 10825 10831 10835 10835 10837 10837
10465 10469 10478 10496 10510 10531 10541 10549 10570 10577 10583 10617 10654 10643 10678 10697 10701 10712 10712 10714 10720 10725 10737 10749 10750 10756 10763 10767 10773 10779 10780 10785 10790 10800 10800 10801 10810 10811 10813 10816 10823 10824 10826 10826
10436 10443 10453 10467 10483 10497 10506 10516 10543 10553 10567 10603 10627 10619 10653 10678 10677 10688 10688 10692 10700 10714 10720 10729 10734 10741 10747 10752 10755 10753 10764 10772 10772 10778 10785 10794 10791 10793 10800 10801 10805 10808 10812 10814
10416 10425 10431 10446 10459 10470 10487 10486 10514 10519 10532 10554 10581 10594 10622 10642 10659 10662 10665 10669 10682 10689 10697 10708 10718 10720 10722 10728 10734 10733 10745 10758 10767 10761 10758 10778 10784 10781 10779 10785 10788 10794 10797 10799
10401 10404 10408 10417 10428 10447 10457 10471 10482 10491 10505 10518 10553 10573 10600 10614 10635 10638 10637 10643 10653 10661 10670 10680 10689 10691 10695 10699 10717 10722 10732 10738 10745 10748 10749 10754 10763 10771 10766 10768 10775 10777 10781 10785
10388 10389 10393 10402 10411 10427 10438 10458 10464 10470 10479 10491 10524 10540 10569 10582 10599 10612 10624 10626 10625 10638 10632 10649 10664 10668 10670 10693 10706 10702 10715 10719 10721 10729 10737 10740 10742 10750 10755 10756 10761 10764 10764 10768
10379 10378 10379 10387 10389 10406 10416 10431 10429 10440 10462 10470 10494 10519 10533 10543 10560 10586 10598 10600 10596 10597 10610 10627 10636 10643 10661 10678 10683 10678 10681 10700 10706 10712 10718 10725 10725 10727 10734 10741 10742 10744 10748 10750
10371 10371 10366 10372 10375 10380 10391 10396 10403 10410 10429 10444 10460 10487 10504 10526 10537 10540 10540 10545 10567 10569 10575 10598 10611 10623 10636 10650 10655 10654 10666 10686 10692 10693 10696 10702 10707 10709 10714 10719 10723 10726 10729 10734
10363 10363 10360 10359 10364 10367 10377 10376 10382 10392 10404 10419 10423 10448 10472 10481 10488 10503 10511 10526 10545 10553 10579 10597 10605 10607 10616 10617 10636 10636 10646 10661 10665 10666 10673 10681 10685 10690 10695 10698 10702 10707 10710 10714
10357 10356 10353 10350 10349 10352 10363 10374 10374 10380 10394 10397 10415 10426 10447 10460 10476 10491 10492 10507 10530 10544 10553 10570 10574 10581 10589 10589 10603 10604 10614 10625 10638 10645 10652 10656 10663 10670 10673 10677 10681 10686 10690 10694
10354 10348 10343 10339 10342 10340 10346 10350 10353 10355 10366 10370 10386 10398 10416 10435 10454 10471 10472 10480 10498 10504 10503 10519 10528 10538 10538 10544 10560 10574 10586 10601 10610 10622 10628 10631 10638 10646 10650 10654 10658 10664 10670 10674
10349 10346 10337 10330 10334 10332 10323 10319 10329 10335 10337 10340 10354 10373 10380 10391 10411 10421 10432 10437 10450 10457 10467 10478 10484 10502 10517 10525 10538 10562 10569 10577 10588 10594 10595 10603 10608 10616 10620 10627 10634 10639 10645 10648
10338 10337 10329 10326 10323 10318 10315 10310 10311 10320 10328 10328 10331 10336 10343 10356 10378 10393 10401 10386 10397 10417 10415 10427 10445 10465 10490 10504 10513 10520 10532 10549 10558 10560 10562 10572 10582 10590 10596 10600 10611 10618 10622 10624
10331 10328 10320 10316 10313 10307 10294 10297 10299 10306 10318 10308 10308 10322 10325 10339 10355 10370 10366 10378 10391 10401 10399 10427 10436 10438 10464 10478 10486 10483 10497 10520 10523 10528 10535 10545 10554 10563 10571 10576 10582 10592 10598 10603
10324 10321 10312 10306 10303 10292 10286 10282 10282 10288 10291 10288 10294 10298 10305 10315 10326 10338 10340 10348 10356 10365 10369 10389 10399 10416 10433 10453 10455 10455 10464 10478 10488 10496 10500 10509 10520 10532 10541 10548 10556 10563 10572 10576
10311 10306 10295 10289 10285 10285 10278 10274 10267 10269 10271 10273 10272 10275 10282 10292 10297 10311 10314 10311 10317 10329 10340 10354 10364 10369 10382 10394 10393 10402 10423 10441 10455 10457 10465 10476 10489 10502 10515 10521 10528 10537 10542 10551
10303 10298 10286 10280 10271 10268 10263 10263 10258 10254 10253 10256 10256 10257 10261 10266 10272 10281 10290 10295 10293 10298 10307 10315 10319 10335 10352 10363 10370 10376 10394 10412 10412 10425 10438 10447 10460 10467 10477 10487 10499 10506 10519 10522
10295 10285 10279 10270 10262 10255 10243 10247 10246 10246 10240 10235 10240 10239 10244 10247 10250 10252 10263 10265 10265 10271 10275 10285 10294 10301 10313 10329 10338 10339 10364 10379 10373 10386 10407 10419 10430 10437 10443 10454 10468 10478 10481 10493
10285 10272 10267 10261 10248 10244 10231 10228 10230 10229 10229 10223 10219 10219 10223 10229 10232 10234 10237 10239 10247 10248 10251 10255 10266 10272 10281 10292 10300 10309 10329 10338 10342 10354 10373 10382 10394 10406 10413 10418 10432 10441 10450 10456
10275 10263 10257 10247 10241 10232 10221 10216 10212 10210 10209 10207 10203 10206 10208 10210 10210 10213 10214 10216 10221 10226 10227 10230 10241 10250 10257 10258 10273 10287 10294 10301 10314 10320 10333 10347 10357 10370 10382 10388 10400 10405 10419 10425
10258 10251 10245 10239 10229 10220 10214 10207 10200 10195 10191 10188 10187 10187 10189 10192 10191 10190 10195 10195 10197 10203 10208 10209 10217 10228 10233 10233 10244 10254 10258 10260 10273 10284 10297 10310 10324 10333 10346 10352 10363 10372 10381 10390